Stations météo

réclame
Mon MeteoGroup
Feldberg/Mecklenburg, Allemagne (10282): Température de l'air & dewpoint: 17.09.2018 05:00:00 - 23.09.2018 05:00:00 (CEST)Feldberg/Mecklenburg, Allemagne (10282): Température de l'air 5cm & Température de l'air -5cm: 17.09.2018 05:00:00 - 23.09.2018 05:00:00 (CEST)Feldberg/Mecklenburg, Allemagne (10282): Température de l'air -20cm & Température de l'air -100cm: 17.09.2018 05:00:00 - 23.09.2018 05:00:00 (CEST)Feldberg/Mecklenburg, Allemagne (10282): Vitesse du vent & gusts: 17.09.2018 05:00:00 - 23.09.2018 05:00:00 (CEST)Feldberg/Mecklenburg, Allemagne (10282): Direction du vent: 17.09.2018 05:00:00 - 23.09.2018 05:00:00 (CEST)Feldberg/Mecklenburg, Allemagne (10282): reduced air pressure: 17.09.2018 05:00:00 - 23.09.2018 05:00:00 (CEST)Feldberg/Mecklenburg, Allemagne (10282): visibility: 17.09.2018 05:00:00 - 23.09.2018 05:00:00 (CEST)Feldberg/Mecklenburg, Allemagne (10282): Ensoleillement: 17.09.2018 05:00:00 - 23.09.2018 05:00:00 (CEST)Feldberg/Mecklenburg, Allemagne (10282): Quantités de précipitations: 17.09.2018 05:00:00 - 23.09.2018 05:00:00 (CEST)
Date & Time tt [°C] td [°C] tt 5cm [°C] tt -5cm [°C] tt -20cm [°C] tt -100cm [°C] ff [km/h] ff [knt] fx [km/h] fx [knt] dd ppp [hPa] vv [km] sd [min] rr [mm]
23.09.2018 05:00:00 8,6 6,8 7,8 9,6 14,6 18,2 18 10 32 17 W 1014,4 36 0 0,0
23.09.2018 04:00:00 8,6 6,6 7,4 10,1 14,8 18,2 15 8 24 13 WSW 1014,6 57 0 0,0
23.09.2018 03:00:00 9,4 6,8 8,5 11,0 15,1 18,2 14 8 28 15 WSW 1014,8 55 0 0,0
23.09.2018 02:00:00 10,1 7,3 9,7 11,5 15,4 18,2 19 10 29 16 WSW 1014,9 44 0 0,0
23.09.2018 01:00:00 10,3 7,2 9,4 11,6 15,6 18,3 23 12 33 18 WSW 1014,9 43 0 0,0
23.09.2018 00:00:00 9,8 6,8 8,8 12,0 16,0 18,3 11 6 18 10 WSW 1015,1 49 0 0,0
22.09.2018 23:00:00 10,0 7,4 9,0 12,3 16,3 18,3 11 6 23 12 WSW 1015,2 36 0 0,0
22.09.2018 22:00:00 10,2 8,0 9,4 13,1 16,6 18,3 8 5 14 8 SW 1015,2 47 0 0,0
22.09.2018 21:00:00 10,5 8,7 9,9 13,7 17,0 18,3 9 5 25 13 W 1015,4 40 0 0,6
22.09.2018 20:00:00 11,1 7,7 10,0 14,5 17,3 18,4 15 8 24 13 W 1015,6 2,7 0 0,0
22.09.2018 19:00:00 11,9 6,8 11,3 15,9 17,5 18,4 9 5 40 22 NW 1014,9 56 0 0,0
22.09.2018 18:00:00 15,3 4,6 14,7 17,4 17,5 18,4 28 15 44 24 WSW 1014,6 58 0 0,0
22.09.2018 17:00:00 15,8 5,7 16,0 18,6 17,4 18,4 24 13 45 25 WSW 1014,9 55 11 0,0
22.09.2018 16:00:00 16,1 5,2 17,6 20,0 17,0 18,4 27 14 50 27 WSW 1014,8 55 32 0,0
22.09.2018 15:00:00 15,3 5,3 16,1 20,3 16,5 18,4 26 14 44 24 WSW 1015,1 54 34 0,0
22.09.2018 14:00:00 16,5 7,1 19,4 19,0 16,0 18,4 24 13 46 25 WSW 1015,2 42 32 0,0
22.09.2018 13:00:00 15,5 6,3 17,9 18,0 15,5 18,4 24 13 40 21 WSW 1015,5 66 30 0,0
22.09.2018 12:00:00 13,5 7,3 14,9 17,1 15,1 18,4 28 15 44 24 WSW 1015,7 33 37 0,0
22.09.2018 11:00:00 13,2 7,8 15,8 15,8 14,7 18,5 24 13 39 21 WSW 1015,8 43 51 0,0
22.09.2018 10:00:00 12,0 7,7 13,8 12,9 14,5 18,5 24 13 36 19 WSW 1015,3 43 21 0,0
22.09.2018 09:00:00 10,7 7,0 11,1 11,0 14,6 18,5 19 10 31 17 WSW 1014,5 49 1 0,0
22.09.2018 08:00:00 9,6 6,7 9,3 9,9 14,8 18,5 19 10 29 16 WSW 1013,9 51 0 0,0
22.09.2018 07:00:00 8,7 6,2 8,3 9,2 15,1 18,5 20 11 29 16 WSW 1013,1 47 0 0,0
22.09.2018 06:00:00 8,4 5,6 7,4 9,3 15,5 18,5 21 11 33 18 SW 1012,5 51 0 0,0
22.09.2018 05:00:00 8,5 5,2 7,3 9,6 16,0 18,5 20 11 33 18 SW 1012,3 56 0 0,0
22.09.2018 04:00:00 8,6 5,0 7,4 10,0 16,5 18,5 21 12 36 19 SW 1011,9 57 0 0,0
22.09.2018 03:00:00 9,0 5,0 7,7 10,6 17,0 18,5 17 9 27 14 SW 1011,4 65 0 0,0
22.09.2018 02:00:00 9,3 5,9 8,0 11,5 17,5 18,5 16 9 29 16 SW 1011,0 56 0 0,0
22.09.2018 01:00:00 9,9 6,9 8,7 12,5 18,0 18,5 19 10 33 18 SW 1010,8 49 0 0,0
22.09.2018 00:00:00 10,5 8,0 9,0 13,0 18,5 18,5 14 7 27 15 SW 1010,3 51 0 0,0
21.09.2018 23:00:00 11,5 10,0 10,3 14,1 19,0 18,5 16 9 27 15 WSW 1009,7 37 0 0,0
21.09.2018 22:00:00 12,2 11,0 11,4 15,1 19,5 18,5 20 11 32 17 WSW 1008,5 30 0 0,0
21.09.2018 21:00:00 12,3 11,5 12,0 15,8 20,0 18,5 16 8 24 13 SW 1007,3 30 0 0,0
21.09.2018 20:00:00 12,2 11,4 12,1 16,4 20,6 18,5 14 8 25 13 WSW 1005,8 32 0 0,5
21.09.2018 19:00:00 12,2 11,2 12,1 17,5 21,2 18,5 17 9 31 17 W 1005,9 12 0 1,2
21.09.2018 18:00:00 12,6 11,2 12,4 19,3 21,6 18,5 20 11 62 34 W 1005,7 38 0 1,1
21.09.2018 17:00:00 14,4 12,6 14,0 23,4 21,6 18,5 41 22 91 49 W 1004,9 7 0 1,6
21.09.2018 16:00:00 26,8 10,0 26,9 25,6 21,2 18,5 34 18 69 37 SSW 1000,5 18 11 0,0
21.09.2018 15:00:00 27,4 11,7 28,0 25,7 20,7 18,5 35 19 59 32 SSW 1001,1 14 3 0,0
21.09.2018 14:00:00 28,0 12,4 29,0 25,6 20,1 18,5 31 17 56 30 SSW 1002,0 22 15 0,0
21.09.2018 13:00:00 28,2 12,2 30,7 25,2 19,4 18,5 30 16 50 27 S 1002,7 23 49 0,0
21.09.2018 12:00:00 26,8 12,2 28,4 23,6 18,8 18,4 32 17 45 24 S 1004,1 18 59 0,0
21.09.2018 11:00:00 23,8 13,2 26,1 20,5 18,5 18,4 24 13 38 21 S 1005,4 25 48 0,0
21.09.2018 10:00:00 21,5 12,8 21,9 18,9 18,4 18,4 23 12 32 17 S 1006,1 25 37 0,0
21.09.2018 09:00:00 18,7 12,0 18,5 17,0 18,4 18,4 18 10 27 14 S 1006,9 24 42 0,0
21.09.2018 08:00:00 17,8 10,8 17,5 16,0 18,6 18,4 17 9 27 14 S 1007,5 26 29 0,0
21.09.2018 07:00:00 17,0 10,2 15,4 15,7 18,8 18,4 14 7 24 13 S 1008,1 28 0 0,0
21.09.2018 06:00:00 16,3 10,1 14,6 15,8 19,2 18,4 13 7 19 10 S 1008,9 26 0 0,0
21.09.2018 05:00:00 14,5 10,4 11,7 15,9 19,5 18,4 9 5 13 7 S 1009,5 23 0 0,0
21.09.2018 04:00:00 14,0 11,5 11,2 16,4 19,9 18,4 5 3 9 5 SE 1010,3 21 0 0,0
21.09.2018 03:00:00 12,2 10,1 10,1 16,8 20,3 18,4 0 0 3 2 N 1011,2 19 0 0,0
21.09.2018 02:00:00 12,9 10,8 10,2 17,4 20,7 18,4 1 1 3 2 NE 1011,9 19 0 0,0
21.09.2018 01:00:00 13,0 10,5 10,7 18,0 21,2 18,4 1 1 3 2 N 1012,4 24 0 0,0
21.09.2018 00:00:00 14,0 11,3 10,9 18,8 21,6 18,3 0 0 2 1 N 1012,9 22 0 0,0
20.09.2018 23:00:00 14,8 11,2 11,9 19,8 22,1 18,3 2 1 4 2 ESE 1013,4 26 0 0,0
20.09.2018 22:00:00 16,3 11,9 12,8 20,8 22,6 18,3 2 1 4 2 WNW 1013,5 28 0 0,0
20.09.2018 21:00:00 16,6 11,3 14,0 22,2 22,9 18,3 1 0 4 2 SE 1013,9 30 0 0,0
20.09.2018 20:00:00 19,4 11,9 17,0 23,8 23,2 18,3 0 0 4 2 N 1013,9 25 0 0,0
20.09.2018 19:00:00 23,3 12,0 21,2 25,4 23,2 18,3 3 2 18 10 S 1013,7 33 0 0,0
20.09.2018 18:00:00 25,2 11,5 24,9 27,0 23,0 18,3 14 8 30 16 SW 1014,1 30 32 0,0
20.09.2018 17:00:00 25,8 11,1 27,1 28,3 22,6 18,3 21 12 36 19 SW 1014,3 29 59 0,0
20.09.2018 16:00:00 25,1 11,5 26,1 28,9 22,1 18,3 23 12 37 20 SSW 1014,9 35 48 0,0
20.09.2018 15:00:00 25,8 11,8 29,9 28,5 21,3 18,3 23 13 - - SW 1015,4 34 57 -
20.09.2018 14:00:00 - - - - - - - - - - - - - - -
20.09.2018 13:00:00 24,5 11,8 27,9 26,7 19,8 18,3 22 12 37 20 WSW 1016,4 33 57 0,0
20.09.2018 12:00:00 23,5 12,0 27,7 24,2 19,2 18,3 19 11 - - SW 1017,0 24 60 -
20.09.2018 11:00:00 - - - - - - - - - - - - - - -
20.09.2018 10:00:00 - - - - - - - - - - - - - - -
20.09.2018 09:00:00 - - - - - - - - - - - - - - -
20.09.2018 08:00:00 14,9 12,0 14,7 16,5 19,0 18,3 5 3 7 4 SW 1017,7 11 0 0,0
20.09.2018 07:00:00 13,5 11,1 11,2 16,6 19,3 18,2 4 2 8 4 WSW 1017,3 16 0 0,0
20.09.2018 06:00:00 14,9 11,2 13,2 17,1 19,5 18,2 6 4 14 8 SW 1017,1 21 0 0,0
20.09.2018 05:00:00 18,8 11,7 17,3 17,4 19,8 18,2 10 6 22 12 WNW 1016,6 27 0 0,0
20.09.2018 04:00:00 18,9 12,3 17,2 17,4 20,1 18,2 11 6 18 10 WNW 1016,5 20 0 0,0
20.09.2018 03:00:00 15,5 11,6 13,2 17,6 20,4 18,2 9 5 12 7 W 1016,5 22 0 0,0
20.09.2018 02:00:00 16,0 11,7 13,2 18,2 20,8 18,2 4 2 10 5 SW 1016,3 24 0 0,0
20.09.2018 01:00:00 15,4 11,3 13,5 18,7 21,2 18,2 8 4 9 5 W 1016,3 16 0 0,0
20.09.2018 00:00:00 16,3 11,8 13,2 19,4 21,7 18,2 5 3 6 4 WSW 1016,3 24 0 0,0
19.09.2018 23:00:00 17,0 11,5 14,5 20,3 22,1 18,2 6 3 9 5 WSW 1016,3 27 0 0,0
19.09.2018 22:00:00 17,9 11,8 15,7 21,2 22,5 18,2 7 4 10 5 W 1016,3 27 0 0,0
19.09.2018 21:00:00 18,5 11,9 15,9 22,4 22,9 18,2 2 1 7 4 S 1015,9 24 0 0,0
19.09.2018 20:00:00 20,4 12,4 16,7 23,9 23,2 18,2 4 2 10 5 SSE 1015,6 23 0 0,0
19.09.2018 19:00:00 24,4 12,2 22,9 25,8 23,2 18,2 7 4 19 11 SSE 1015,6 27 32 0,0
19.09.2018 18:00:00 25,8 12,2 25,8 27,6 23,0 18,2 14 8 33 18 SW 1015,9 24 60 0,0
19.09.2018 17:00:00 26,5 12,5 28,3 28,9 22,5 18,2 19 10 33 18 SSW 1015,9 21 59 0,0
19.09.2018 16:00:00 26,8 12,3 30,0 29,6 21,8 18,2 22 12 36 19 SW 1016,4 15 60 0,0
19.09.2018 15:00:00 26,1 11,0 30,0 29,4 21,0 18,2 20 11 36 19 WSW 1016,8 21 60 0,0
19.09.2018 14:00:00 26,1 11,4 30,2 28,3 20,1 18,2 17 9 31 17 SW 1017,0 21 60 0,0
19.09.2018 13:00:00 24,5 11,1 28,4 26,6 19,3 18,2 18 10 31 17 SW 1017,3 26 60 0,0
19.09.2018 12:00:00 23,1 12,8 27,0 24,4 18,7 18,2 16 9 32 18 SW 1017,6 25 60 0,0
19.09.2018 11:00:00 21,2 13,0 24,8 21,5 18,3 18,1 17 9 23 13 SW 1017,9 20 60 0,0
19.09.2018 10:00:00 19,3 13,1 20,8 19,3 18,1 18,1 13 7 29 15 W 1017,8 23 59 0,0
19.09.2018 09:00:00 18,7 12,9 19,9 17,2 18,1 18,1 16 9 26 14 W 1017,3 19 60 0,0
19.09.2018 08:00:00 16,0 13,2 16,0 15,5 18,4 18,1 9 5 13 7 W 1017,0 15 33 0,0
19.09.2018 07:00:00 13,7 12,3 12,0 15,5 18,7 18,1 9 5 13 7 WSW 1016,6 10 0 0,0
19.09.2018 06:00:00 12,9 11,3 10,8 15,9 19,0 18,1 7 4 9 5 WSW 1016,4 14 0 0,0
19.09.2018 05:00:00 13,5 11,7 10,8 16,6 19,3 18,1 4 2 8 5 SSE 1016,1 15 0 0,0
19.09.2018 04:00:00 16,6 12,6 13,2 17,3 19,5 18,1 4 2 14 8 NW 1015,4 19 0 0,0
19.09.2018 03:00:00 18,2 12,9 16,6 17,8 19,8 18,1 11 6 27 15 NNW 1014,6 24 0 0,0
19.09.2018 02:00:00 19,6 10,1 18,0 17,8 20,1 18,1 14 8 29 16 NNW 1014,1 26 0 0,0
19.09.2018 01:00:00 18,1 8,9 14,2 18,0 20,5 18,1 6 3 9 5 W 1013,2 32 0 0,0
19.09.2018 00:00:00 17,3 9,2 12,8 18,5 21,0 18,1 3 2 7 4 W 1013,1 29 0 0,0
18.09.2018 23:00:00 16,1 9,5 12,4 19,3 21,5 18,1 2 1 5 3 SSW 1013,0 26 0 0,0
18.09.2018 22:00:00 15,8 9,0 12,6 20,4 21,9 18,1 0 0 5 3 N 1013,0 31 0 0,0
18.09.2018 21:00:00 17,8 9,2 13,7 21,7 22,3 18,1 2 1 7 4 ESE 1012,9 30 0 0,0
18.09.2018 20:00:00 21,4 8,6 15,9 23,5 22,5 18,1 4 2 8 4 SSE 1012,6 22 0 0,0
18.09.2018 19:00:00 25,8 8,4 23,3 25,6 22,5 18,1 8 4 27 14 S 1012,3 20 59 0,0
18.09.2018 18:00:00 28,4 7,7 27,9 27,4 22,2 18,1 19 10 33 18 S 1012,1 25 60 0,0
18.09.2018 17:00:00 28,8 7,0 30,2 28,6 21,6 18,1 24 13 36 19 S 1012,2 20 60 0,0
18.09.2018 16:00:00 29,4 7,5 31,7 28,9 20,8 18,1 22 12 46 25 SSW 1012,5 18 60 0,0
18.09.2018 15:00:00 28,9 8,1 31,8 28,4 20,0 18,1 23 12 39 21 SSW 1013,2 20 60 0,0
18.09.2018 14:00:00 27,6 9,7 30,9 27,5 19,0 18,1 23 13 37 20 S 1013,9 16 60 0,0
18.09.2018 13:00:00 26,9 8,8 30,0 26,0 18,1 18,1 20 11 29 16 S 1014,6 36 60 0,0
18.09.2018 12:00:00 25,4 9,7 29,0 23,6 17,3 18,1 16 9 23 12 S 1015,2 26 60 0,0
18.09.2018 11:00:00 22,7 9,7 25,8 20,6 16,7 18,1 10 5 16 8 SSE 1015,8 32 60 0,0
18.09.2018 10:00:00 19,6 9,2 22,0 17,1 16,5 18,1 7 4 11 6 SE 1016,1 31 58 0,0
18.09.2018 09:00:00 16,8 8,3 18,2 14,7 16,6 18,1 6 4 11 6 SSE 1016,3 32 60 0,0
18.09.2018 08:00:00 12,1 8,3 10,9 13,0 16,9 18,1 2 1 4 2 ESE 1016,9 27 9 0,0
18.09.2018 07:00:00 9,5 6,9 6,9 13,1 17,2 18,1 0 0 3 2 N 1016,8 22 0 0,0
18.09.2018 06:00:00 9,6 6,9 7,2 13,5 17,5 18,1 0 0 3 2 N 1016,9 26 0 0,0
18.09.2018 05:00:00 9,9 6,7 7,3 14,0 17,9 18,1 0 0 3 2 N 1017,1 30 0 0,0
18.09.2018 04:00:00 10,5 6,8 7,7 14,5 18,3 18,1 0 0 3 1 N 1017,3 34 0 0,0
18.09.2018 03:00:00 10,8 6,8 8,4 15,1 18,7 18,1 0 0 2 1 N 1017,4 44 0 0,0
18.09.2018 02:00:00 11,6 7,4 8,9 15,6 19,1 18,1 0 0 3 2 N 1017,7 36 0 0,0
18.09.2018 01:00:00 11,6 7,2 9,2 16,2 19,5 18,1 0 0 3 2 N 1017,8 36 0 0,0
18.09.2018 00:00:00 12,1 7,4 9,5 17,0 20,0 18,1 2 1 3 2 W 1018,1 39 0 0,0
17.09.2018 23:00:00 12,7 7,8 10,2 17,7 20,4 18,1 0 0 5 3 N 1018,3 35 0 0,0
17.09.2018 22:00:00 13,6 7,6 10,5 18,8 20,9 18,1 2 1 4 2 NNE 1018,1 41 0 0,0
17.09.2018 21:00:00 14,7 8,2 11,0 20,2 21,3 18,1 3 1 4 2 WNW 1018,5 40 0 0,0
17.09.2018 20:00:00 16,5 8,0 13,1 22,0 21,6 18,1 3 1 6 3 WNW 1018,3 36 0 0,0
17.09.2018 19:00:00 21,6 6,5 19,7 24,1 21,6 18,1 6 3 17 9 WSW 1017,7 53 29 0,0
17.09.2018 18:00:00 24,7 6,0 24,6 25,9 21,3 18,1 12 6 23 13 WSW 1017,7 49 50 0,0
17.09.2018 17:00:00 24,9 5,9 25,6 27,1 20,8 18,1 17 9 27 15 SSW 1017,7 25 58 0,0
17.09.2018 16:00:00 25,4 6,4 27,7 27,5 20,1 18,1 17 9 30 16 SSW 1017,9 29 60 0,0
17.09.2018 15:00:00 24,9 5,8 27,8 27,7 19,2 18,2 21 12 35 19 WSW 1018,3 38 60 0,0
17.09.2018 14:00:00 25,3 7,0 29,5 26,8 18,3 18,2 16 9 31 17 WSW 1018,8 39 60 0,0
17.09.2018 13:00:00 23,6 8,2 27,5 24,5 17,4 18,2 13 7 26 14 SW 1019,3 29 60 0,0
17.09.2018 12:00:00 22,1 8,3 25,4 21,9 16,8 18,2 16 9 24 13 SSW 1019,4 27 60 0,0
17.09.2018 11:00:00 20,1 8,7 22,7 19,5 16,3 18,2 11 6 16 8 SSW 1019,9 39 59 0,0
17.09.2018 10:00:00 18,5 8,2 20,6 17,2 16,0 18,2 11 6 18 10 SW 1020,0 37 60 0,0
17.09.2018 09:00:00 15,8 8,0 17,4 14,3 16,1 18,2 10 5 15 8 SSW 1020,0 35 60 0,0
17.09.2018 08:00:00 12,7 7,8 12,7 12,8 16,3 18,2 6 4 11 6 SW 1020,1 27 34 0,0
17.09.2018 07:00:00 10,8 7,5 8,1 12,9 16,5 18,2 6 3 14 7 SW 1019,9 23 0 0,0
17.09.2018 06:00:00 10,7 7,7 9,2 13,1 16,8 18,2 3 2 10 5 SSW 1019,7 25 0 0,0
17.09.2018 05:00:00 10,2 7,4 8,0 13,3 17,1 18,2 8 5 11 6 WSW 1020,0 26 0 0,0

tt = Température de l'air
td = dewpoint
tt 5cm = Température de l'air 5cm
tt -5cm = Température de l'air -5cm
tt -20cm = Température de l'air -20cm
tt -100cm = Température de l'air -100cm
ff = Vitesse du vent
fx = gusts
dd = Direction du vent
ppp = reduced air pressure
vv = visibility
sd = Ensoleillement
rr = Quantités de précipitations

stations d'obs. à proximité